BREEZE-M R/B, 40385

Orbit data source: Space-Track

BREEZE-M R/B, 40385 is space debris in HEO originally from a launch on Sun, 01 Feb 2015 UTC launched from the Tyuratam Missile And Space Complex (TTMTR). Debris objects in space refer to the collection of defunct objects orbiting the Earth. Examples of debris include non-operational satellites, rocket bodies, and fragments generated from explosions, collisions, or faulty payload assembly.

Loading next visibility...
Identifier
40385, 2015-005B
Orbit
HEO
Country
Flag of CISCIS
Related business
Manufacturer
Khrunichev
Mission
Spacecraft
Bus & Motor
BRIZ, Unknown motor
Mass
~1,600 kg wet, 1,600 kg dry
Launch date (UTC)
2015-02-01 (12 years ago)
Launch vehicle
Unknown
Launch site
Tyuratam Missile And Space Complex (TTMTR)
Object type
Payload
Rocket body
Debris
Shape & HBR
Cyl, 2.4 m
Radar Cross Section
15.135 m², Large (>1 m²)

Expand to show TLE details & history
Last TLE update: 16 hours ago

TLE from 16 hours ago
0 BREEZE-M R/B
1 40385U 15005B   26254.72219116 -.00000232  00000-0  00000-0 0  9997
2 40385  26.9608 266.7292 7568001 143.3377 306.2623  1.11107355 47111
Epoch: 2026-09-11T17:19Z
TLE epoch observation values (Epoch: 2026-09-11T17:19:57.316Z)
Latitude
Longitude
16.11747°
Altitude
36,315.525 km
Speed
2.924 km/s
True Right ascension
17h 47m 23s
True Declination
0° 00' 00"
Sunlit
Object was in daylight at epoch
Visualization orbit readout
Latitude
Unknown
Longitude
Unknown
Altitude
Unknown
Speed
Unknown
Apparent Right ascension
Unknown
Apparent Declination
Unknown
Sunlit
N/A
Visualization observer readout
Local Sidereal Time
01:48:21
Azimuth
Unknown
Elevation
Unknown
Doppler factor
Unknown
Orbital elements
Apogee altitude
62,803.866 km
Perigee altitude
3,198.966 km
Semi-major axis
39,379.553 km
Eccentricity
0.7568
Inclination
26.9608°
RAAN
266.7292°
Arg. of periapsis
143.3377°
True anomaly
216.56374°
Mean anomaly
306.2623°
Eccentric anomaly
263.20539°
Mean motion
0.27774 °/min
Orbital period
1,296.18 mins
BSTAR
0
Loading maneuver chart data...
Computing Atmospheric mass density...
Loading historical data...
Loading historical data...
Loading historical data...
Loading historical data...
Loading historical data...
Loading historical data...
Loading historical data...
Other satellites on launch #5 in the year 2015 (2015-02-01 UTC)

Documentation

Showing up to 5 results
|